Regional Weather Roundup
Issued by NWS

Home | Current Version | Previous Version | Graphics & Text | Print | Product List | Glossary Off
Versions: 1 2 3 4 5 6 7 8 9 10 11 12 13 14 15 16 17 18 19 20 21 22 23 24 25 26 27 28 29 30 31 32 33 34 35 36 37 38 39 40 41 42 43 44 45 46 47 48 49 50

263
ASUS43 KDMX 232301
RWRIA

WEATHER ROUNDUP FOR IOWA
NATIONAL WEATHER SERVICE DES MOINES IA
600 PM CDT MON APR 23 2018

NOTE: "FAIR" INDICATES FEW OR NO CLOUDS BELOW 12,000 FEET WITH NO
SIGNIFICANT WEATHER AND/OR OBSTRUCTIONS TO VISIBILITY.

* - THESE STATIONS ARE NOT NWS STATIONS...THUS NOT UNDER NWS
QUALITY CONTROL.  THEY ALSO DO NOT REPORT WEATHER SUCH
AS PRECIPITATION OR FOG.

IAZ001>003-012>014-020>022-031>034-043>046-240000-
   NORTHWEST IOWA

CITY           SKY/WX    TMP DP  RH WIND       PRES   REMARKS
CARROLL *      CLOUDY    72  34  25 NE12      30.08S
CHEROKEE *     SUNNY     68  37  32 E8        30.12S
DENISON *      SUNNY     72  32  23 VRB7      30.10S
LE MARS *      SUNNY     70  32  24 E8        30.09F
ORANGE CITY *  SUNNY     70  36  28 E3        30.11F
SHELDON *      SUNNY     66  36  32 E13       30.11S
SIOUX CITY     SUNNY     72  30  21 CALM      30.07F
SPENCER        SUNNY     65  37  35 E7        30.14S
STORM LAKE *   SUNNY     66  37  34 NE9       30.11F
$$

IAZ055>058-069>071-079>083-090>094-240000-
   SOUTHWEST IOWA

CITY           SKY/WX    TMP DP  RH WIND       PRES   REMARKS
ATLANTIC *     SUNNY     72  30  21 E9        30.07S
AUDUBON *      SUNNY     72  27  18 NE9       30.09S
CLARINDA *     SUNNY     73  28  19 NE9G17    30.08S
COUNCIL BLFS * SUNNY     72  28  20 E8        30.06F
CRESTON *      SUNNY     72  28  20 NE12G18   30.08S
HARLAN  *      SUNNY     72  28  20 NE8G15    30.10S
LAMONI         SUNNY     72  31  22 NE13      30.05S
RED OAK *      SUNNY     73  32  21 MISG      30.06S
SHENANDOAH *   SUNNY     73  28  19 NE8       30.06S
$$

IAZ047>049-059>061-072>074-084-240000-
   CENTRAL IOWA

CITY           SKY/WX    TMP DP  RH WIND       PRES   REMARKS
AMES           SUNNY     72  30  21 E9        30.07F
ANKENY *       SUNNY     72  28  20 NE12G20   30.07F
BOONE *        SUNNY     70  30  23 E9        30.07F
CHARITON *     SUNNY     72  28  20 NE13G20   30.05F
DES MOINES     MOSUNNY   73  28  18 NE10      30.06F
GRINNELL*      SUNNY     70  27  20 NE10      30.08S
KNOXVILLE *    SUNNY     72  27  18 NE10      30.04F
MARSHALLTOWN   SUNNY     71  29  21 NE10      30.07F
NEWTON *       SUNNY     70  28  21 NE10G17   30.06F
PELLA *        SUNNY     73  24  16 NE6       30.07S
$$

IAZ004>006-015-016-023>025-035-036-240000-
   NORTH CENTRAL IOWA

CITY           SKY/WX    TMP DP  RH WIND       PRES   REMARKS
ALGONA *       SUNNY     64  45  48 NE10      30.13F
CLARION *      SUNNY     68  37  32 NE15      30.11S
ESTHERVILLE    SUNNY     59  42  53 NE6       30.14F
FORT DODGE *   SUNNY     68  38  33 NE8       30.11F
MASON CITY     SUNNY     65  41  41 NE9       30.13F
FOREST CITY *  FAIR      64  37  36 NE7       30.13S
WEBSTER CITY * SUNNY     70  36  28 NE15      30.08S
IOWA FALLS *   FAIR      70  33  25 NE13      30.10F
$$

IAZ007>011-017>019-026>030-037>042-050>054-066-240000-
   NORTHEAST IOWA

CITY           SKY/WX    TMP DP  RH WIND       PRES   REMARKS
CEDAR RAPIDS   FAIR      71  27  19 NE12      30.06F
CHARLES CITY * FAIR      66  34  30 NE9G16    30.12S
CLINTON *      FAIR      70  35  27 NE17      30.06F
DECORAH *      FAIR      66  27  22 E9        30.10F
DUBUQUE        FAIR      66  27  23 NE8       30.09F
MONTICELLO *   FAIR      70  23  17 NE10G16   30.08S
OELWEIN *      FAIR      68  30  24 NE9       30.10S
WATERLOO       FAIR      69  30  23 NE10      30.08F
$$

IAZ064-065-067-068-078-240000-
   EAST CENTRAL IOWA

CITY           SKY/WX    TMP DP  RH WIND       PRES   REMARKS
DAVENPORT      FAIR      70  29  21 N20       30.07S
IOWA CITY      FAIR      68  27  21 NE9       30.07F
MT. PLEASANT * PTSUNNY   70  28  21 NE15      30.03S
MUSCATINE *    FAIR      72  28  20 NE16      30.04F
QUAD CITIES    FAIR      72  32  23 NE13      30.03S
$$

IAZ062-063-075>077-085>089-095>099-240000-
   SOUTHEAST IOWA

CITY           SKY/WX    TMP DP  RH WIND       PRES   REMARKS
BURLINGTON     MOSUNNY   70  31  23 E13       30.02S
FAIRFIELD *    CLOUDY    70  27  19 NE14      30.04F
FORT MADISON * CLOUDY    72  34  25 E14       30.03S
KEOKUK *       MOSUNNY   72  32  23 NE10G17   30.01S
OSKALOOSA *    FAIR      71  23  16 NE10      30.05F
CENTERVILLE *    N/A     72  25  17 N10       30.06S
OTTUMWA        CLOUDY    71  24  17 E14       30.05S
WASHINGTON *   PTSUNNY   72  25  17 NE15      30.06S
$$

ABBREVIATIONS USED IN REMARKS
   TC - TEMPERATURES IN CELSIUS
  WCI - WIND CHILL INDEX
   HX - HEAT INDEX
  VSB - VISIBILITY
$$





USA.gov is the U.S. government's official web portal to all federal, state and local government web resources and services.